Weather History for Clinton, BC

Change the Weather History Date:

Wednesday, June 12, 2013

  Actual Average Record
Temperature  
Mean Temperature 50 °F -  
Max Temperature 62 °F 63 °F 78 °F (2002)
Min Temperature 38 °F 39 °F 35 °F (1999)
Degree Days  
Heating Degree Days 15    
Moisture  
Dew Point 35 °F    
Average Humidity 56    
Maximum Humidity 93    
Minimum Humidity 22    
Precipitation  
Precipitation 0.04 in - - ()
Sea Level Pressure  
Sea Level Pressure 30.02 in    
Wind  
Wind Speed 4 mph ()    
Max Wind Speed 13 mph    
Max Gust Speed 22 mph    
Visibility 8.9 miles    
Events Rain    
Averages and records for this station are not official NWS values.
T = Trace of Precipitation, MM = Missing Value Source: Averaged Metar Reports

Daily Weather History Graph

Daily Weather History Graph

Search for Another Location

Airport:

Trip Planner

Search our weather history database for the weather conditions in past years. The results will help you decide how hot, cold, wet, or windy it might be!

Date:

Astronomy

Jun. 12, 2013 Rise Set
Actual Time 4:50 AM PDT 9:21 PM PDT
Civil Twilight 4:04 AM PDT 10:08 PM PDT
Nautical Twilight 2:53 AM PDT 11:19 PM PDT
Astronomical Twilight 1:38 AM PDT 12:33 AM PDT
Moon 8:56 AM PDT (6/12) 11:34 PM PDT (6/12)
Length of Visible Light 18h 04m
Length of Day
16h 30m
Waxing Crescent, 15% of the Moon is Illuminated
Jun 12
Waxing Crescent
Jun 16
First Quarter
Jun 23
Full
Jun 29
Last Quarter
Jul 8
New

Hourly Weather History & Observations

Time (PDT) Temp. Windchill Dew Point Humidity Pressure Visibility Wind Dir Wind Speed Gust Speed Precip Events Conditions
12:00 AM 41.0 °F 39.0 °F 39.2 °F 93% 29.96 in 9.0 mi SSW 3.5 mph - N/A   Partly Cloudy
1:00 AM 39.2 °F 37.0 °F 37.4 °F 93% 29.97 in 9.0 mi SW 3.5 mph - N/A   Partly Cloudy
2:00 AM 41 °F - 38 °F 85% 29.98 in 9 mi SW 4.6 mph - -  
2:00 AM 41.0 °F 39.0 °F 37.4 °F 87% 29.98 in 9.0 mi SW 3.5 mph - N/A   Mostly Cloudy
3:00 AM 39.2 °F - 35.6 °F 87% 29.98 in 9.0 mi SSW 2.3 mph - N/A   Scattered Clouds
4:00 AM 39.2 °F 37.0 °F 35.6 °F 87% 29.99 in 9.0 mi South 3.5 mph - N/A   Mostly Cloudy
5:00 AM 39 °F - 36 °F 84% 30.03 in 9 mi South 3.5 mph - -  
5:00 AM 39.2 °F - 35.6 °F 87% 30.03 in 9.0 mi SSW 2.3 mph - N/A   Mostly Cloudy
6:00 AM 41.0 °F 39.0 °F 35.6 °F 81% 30.04 in 9.0 mi South 3.5 mph - N/A   Mostly Cloudy
7:00 AM 42.8 °F 41.1 °F 35.6 °F 76% 30.05 in 9.0 mi SSW 3.5 mph - N/A   Mostly Cloudy
8:00 AM 47 °F - 36 °F 56% 30.05 in 9 mi South 5.8 mph - -  
8:00 AM 46.4 °F 42.4 °F 35.6 °F 66% 30.05 in 9.0 mi South 8.1 mph - N/A   Mostly Cloudy
9:00 AM 51.8 °F - 37.4 °F 58% 30.04 in 9.0 mi SSE 5.8 mph - N/A   Clear
10:00 AM 53.6 °F - 35.6 °F 51% 30.04 in 9.0 mi SSE 3.5 mph - N/A   Clear
11:00 AM 56 °F - 36 °F 35% 30.03 in 9 mi South 5.8 mph - -  
11:00 AM 57.2 °F - 35.6 °F 44% 30.03 in 9.0 mi SSE 6.9 mph - N/A   Clear
12:00 PM 57.2 °F - 35.6 °F 44% 30.03 in 9.0 mi SW 4.6 mph - N/A   Partly Cloudy
1:00 PM 57.2 °F - 33.8 °F 41% 30.03 in 9.0 mi South 6.9 mph - N/A   Scattered Clouds
1:45 PM 57.2 °F - 33.8 °F 41% 29.99 in 9.0 mi South 4.6 mph - N/A Rain Light Rain
2:00 PM 57 °F - 29 °F 22% 30.03 in 9 mi SE 3.5 mph - -  
2:00 PM 57.2 °F - 28.4 °F 33% 30.03 in 9.0 mi WNW 2.3 mph - N/A   Mostly Cloudy
2:12 PM 57.2 °F - 33.8 °F 41% 29.99 in 9.0 mi SW 4.6 mph - N/A Rain Light Rain
2:32 PM 57.2 °F - 32.0 °F 38% 29.99 in 9.0 mi South 6.9 mph - N/A   Mostly Cloudy
3:00 PM 60.8 °F - 32.0 °F 34% 30.02 in 9.0 mi SSW 6.9 mph - N/A   Mostly Cloudy
4:00 PM 60.8 °F - 33.8 °F 36% 30.03 in 9.0 mi SSW 9.2 mph - N/A   Mostly Cloudy
4:17 PM 55.4 °F - 33.8 °F 44% 30.01 in 9.0 mi SW 12.7 mph 21.9 mph N/A Rain Rain
4:23 PM 53.6 °F - 32.0 °F 44% 30.01 in 5.0 mi SW 8.1 mph 21.9 mph N/A Rain Rain
4:42 PM 53.6 °F - 41.0 °F 62% 30.00 in 9.0 mi WNW 3.5 mph - N/A   Overcast
4:55 PM 55.4 °F - 33.8 °F 44% 30.00 in 9.0 mi Calm Calm - N/A   Overcast
5:00 PM 56 °F - 35 °F 32% 30.04 in 9 mi Calm Calm - -   Overcast
5:00 PM 55.4 °F - 33.8 °F 44% 30.04 in 9.0 mi NNW 2.3 mph - N/A   Overcast
6:00 PM 59.0 °F - 30.2 °F 34% 30.02 in 9.0 mi East 2.3 mph - N/A   Clear
7:00 PM 57.2 °F - 30.2 °F 36% 30.01 in 9.0 mi Calm Calm - N/A   Clear
8:00 PM 53 °F - 38 °F 47% 30.02 in 9 mi South 3.5 mph - -  
8:00 PM 53.6 °F - 39.2 °F 58% 30.02 in 9.0 mi South 3.5 mph - N/A   Clear
9:00 PM 46.4 °F 43.5 °F 37.4 °F 71% 30.04 in 9.0 mi West 5.8 mph - N/A   Partly Cloudy
10:00 PM 51.8 °F - 35.6 °F 54% 30.04 in 9.0 mi NW 9.2 mph - N/A   Overcast
11:00 PM 51 °F - 35 °F 43% 30.06 in 9 mi NW 9.2 mph - -  
11:00 PM 51.8 °F - 35.6 °F 54% 30.06 in 9.0 mi WNW 9.2 mph 18.4 mph N/A   Partly Cloudy